Theta_e
335 336 334 332 332 332 333 334 335 337 338 338 338 337 335 334 334 333 332 332 329 329 330 334 334 335 334 330 330 330 329 328 338 337 335 332 335 334 335 334 330 329 330
336 336 335 334 331 332 331 335 333 336 337 337 338 338 336 334 334 334 333 334 331 329 329 329 334 335 337 336 331 330 329 327 337 338 337 334 334 335 334 336 333 330 331
337 336 336 335 332 331 333 332 333 335 335 338 338 338 337 335 334 334 334 333 333 331 328 329 328 332 336 337 336 330 329 328 331 336 337 334 334 334 334 334 334 332 332
341 338 336 335 334 332 332 332 331 331 331 337 339 337 337 335 333 335 335 334 333 332 331 327 328 328 330 336 334 331 329 328 327 334 337 335 334 333 334 334 333 332 333
342 339 338 337 336 334 332 331 331 330 330 339 338 337 337 335 334 334 334 333 333 333 332 330 329 329 328 332 335 335 332 328 326 333 337 337 334 334 334 332 331 332 333
341 341 340 339 339 335 331 331 329 330 336 338 337 336 335 336 336 335 333 333 331 333 332 331 333 329 328 329 332 335 335 330 327 330 336 337 336 335 333 332 333 334 333
342 342 341 340 339 335 334 332 332 334 338 337 337 336 335 334 334 333 333 333 332 333 332 333 332 332 331 329 330 330 334 334 328 331 335 336 336 334 332 333 334 333 329
344 342 342 341 339 337 336 336 335 338 336 337 335 333 335 334 333 333 333 333 333 333 332 332 332 333 333 331 331 328 329 333 329 334 335 336 335 334 333 333 333 331 327
341 342 343 341 340 338 338 338 339 338 336 335 334 333 335 336 336 332 333 332 332 331 329 332 333 334 335 334 334 329 327 330 332 337 334 334 334 333 332 334 332 329 327
343 343 343 340 339 339 339 339 338 337 336 334 331 332 332 331 333 335 332 332 332 330 327 331 333 333 334 333 334 331 325 330 333 337 334 334 335 333 333 333 330 327 323
344 344 342 341 342 340 338 338 338 337 335 334 332 332 331 331 331 334 334 332 331 329 329 333 329 333 333 333 335 334 327 327 332 334 335 334 335 334 333 329 330 326 323
344 343 343 342 341 339 339 338 337 335 334 332 331 331 330 330 330 331 333 333 330 330 331 331 331 330 333 332 331 332 325 323 330 333 334 335 334 332 331 328 328 325 328
344 344 341 340 339 339 338 337 336 334 333 332 332 330 329 329 330 330 330 332 331 329 330 331 331 331 332 332 333 331 325 323 330 333 335 334 332 330 329 327 326 328 327
342 343 340 340 339 338 337 336 333 332 332 332 332 332 331 329 330 330 330 332 332 330 331 332 330 331 333 334 333 329 329 324 331 333 334 334 331 331 326 325 327 327 326
339 341 340 339 338 337 336 334 331 332 332 332 332 332 331 330 330 330 330 331 331 331 332 331 331 332 332 332 332 332 333 326 332 333 333 331 330 326 319 326 327 325 322
338 339 339 338 337 335 333 332 331 331 332 332 331 331 332 332 331 331 330 329 327 328 334 331 332 332 332 331 332 333 334 330 334 333 332 331 329 321 324 327 325 322 321
339 337 336 335 334 333 332 332 332 332 332 332 331 328 331 331 332 331 331 330 328 328 330 331 329 327 328 329 330 332 333 335 334 334 331 328 326 322 326 325 322 320 319
336 334 333 332 332 331 333 333 333 331 332 332 328 328 329 331 331 332 330 328 331 331 328 329 326 325 326 328 329 331 333 333 332 331 329 327 322 324 325 319 319 316 314
333 332 332 332 332 332 333 333 332 332 332 331 327 325 326 328 331 331 327 331 331 331 329 327 323 322 323 324 325 325 327 325 324 327 325 323 325 323 318 313 314 318 319
332 332 332 332 333 333 332 332 332 332 330 330 327 325 324 324 330 330 331 331 330 330 329 326 322 321 321 321 321 319 319 320 320 321 323 322 321 319 317 316 315 319 317
332 332 333 333 333 333 331 332 332 332 332 327 327 326 325 326 329 328 330 331 331 329 327 323 322 321 320 320 318 317 317 317 317 320 319 318 318 319 314 313 319 318 316
333 333 333 333 333 329 327 328 330 333 331 327 326 327 327 327 328 327 329 330 330 328 327 324 322 321 320 318 317 316 316 317 314 315 315 314 314 317 318 319 317 313 313
333 333 333 333 332 331 326 328 330 333 332 328 327 327 326 327 328 328 328 330 328 327 327 327 323 322 319 319 319 318 319 318 315 314 314 312 315 318 318 315 312 313 313
332 332 333 332 332 329 329 330 330 332 331 330 327 327 326 326 326 328 329 329 328 328 328 327 323 322 320 320 321 320 319 317 315 314 315 313 315 315 314 314 313 313 312
333 333 332 332 332 329 330 329 331 331 331 330 327 326 325 325 324 326 328 328 328 327 327 327 325 323 321 319 319 319 315 316 316 316 318 316 316 316 315 315 313 312 311
333 332 331 331 329 329 328 328 329 330 330 327 326 326 326 326 324 325 327 326 325 324 324 323 322 321 321 320 319 319 320 319 318 319 319 320 318 316 316 315 313 311 310
Wind_Speed
27 25 25 25 23 22 21 19 18 15 15 14 14 13 14 11 10 11 9 7 7 8 8 10 11 11 11 12 13 13 9 10 16 20 27 23 23 25 15 18 21 20 20
27 27 26 25 24 23 22 20 18 16 16 15 15 15 15 13 12 12 11 9 9 9 10 9 9 10 11 12 14 15 11 9 15 20 23 20 22 22 17 18 20 22 22
27 26 25 24 24 24 21 19 16 16 16 16 17 15 15 16 15 14 13 13 12 11 13 14 13 11 11 12 12 14 12 10 13 16 21 22 22 19 16 17 19 20 22
26 26 24 24 24 23 21 20 18 17 17 15 15 15 14 18 14 14 14 13 12 11 11 15 15 14 12 13 15 13 11 10 12 15 18 20 20 19 19 17 18 18 18
24 24 22 21 21 21 21 20 17 16 17 14 16 12 15 15 13 15 15 13 14 13 12 13 13 13 13 16 15 13 12 11 12 16 18 20 20 16 16 16 15 15 15
22 22 19 18 18 19 19 18 17 16 13 12 11 14 15 14 14 15 16 15 14 16 14 13 8 12 13 16 15 12 12 12 13 16 18 19 19 16 15 14 15 17 28
20 21 18 18 18 18 18 17 16 15 11 8 9 13 14 17 17 17 15 14 13 14 14 11 12 10 11 15 14 14 12 13 13 15 16 18 18 17 15 15 19 27 32
19 20 18 18 18 15 15 15 16 11 9 9 8 9 8 6 12 14 13 13 11 10 10 12 13 13 13 12 11 12 13 12 14 15 16 18 18 18 18 20 28 30 20
19 18 18 17 17 15 16 17 15 12 10 9 10 8 3 4 4 7 11 11 10 10 9 9 13 13 12 8 9 9 13 12 14 14 17 20 20 20 21 26 28 25 28
18 18 18 17 17 15 13 14 13 12 10 9 7 14 13 8 3 3 6 10 9 8 8 9 10 11 12 8 8 9 12 13 14 14 19 23 22 23 23 31 28 31 25
17 18 18 18 17 14 14 13 11 11 10 12 11 8 11 11 7 4 4 7 8 5 5 5 8 11 10 8 8 10 12 14 13 13 19 25 24 23 25 33 29 24 23
17 18 18 17 15 13 12 11 10 10 11 10 9 11 10 10 8 7 2 5 6 5 3 5 6 8 7 7 8 9 13 15 14 14 22 28 26 26 31 29 24 24 23
18 19 17 15 14 13 11 10 10 10 10 11 11 10 10 9 8 9 6 7 4 4 3 6 5 6 7 9 9 11 14 16 15 16 26 31 29 29 30 26 25 24 22
17 19 14 13 12 11 10 9 9 10 11 11 11 10 10 11 8 8 7 7 5 5 4 6 8 7 7 7 9 14 12 15 16 18 28 37 27 29 28 27 26 24 23
15 16 14 13 12 10 9 9 9 11 11 11 10 11 12 9 10 10 8 8 9 6 2 6 5 7 5 4 6 10 11 16 17 20 35 31 33 32 29 28 26 25 22
15 14 13 11 10 10 10 10 9 11 11 11 10 9 9 9 8 9 9 8 9 8 4 8 5 7 6 6 9 9 12 18 19 24 34 40 34 33 31 29 27 24 22
13 12 11 11 11 11 10 10 9 10 12 11 9 9 9 9 8 9 10 9 9 10 6 6 8 8 7 9 13 14 16 19 24 26 42 44 34 33 32 29 26 23 19
11 12 12 12 11 11 10 10 11 11 12 11 10 9 4 7 9 8 9 12 11 10 13 13 12 8 11 13 15 20 20 24 30 39 41 32 36 35 34 29 25 21 20
13 12 11 11 10 10 10 11 10 9 9 9 10 9 6 5 8 9 12 11 11 11 16 16 11 13 17 20 23 23 25 30 35 43 37 37 37 36 33 27 24 19 18
13 12 11 11 9 8 7 7 7 6 7 10 7 8 10 9 9 12 11 10 15 18 16 17 17 16 15 20 28 30 28 30 32 35 39 36 32 28 28 25 21 18 17
13 13 11 9 7 5 4 5 5 6 9 10 9 9 10 10 10 14 13 14 19 17 18 19 16 15 17 17 22 25 31 32 30 34 32 29 28 23 25 22 20 18 15
13 12 10 7 5 3 4 5 4 5 9 11 10 9 8 9 11 16 16 18 21 22 22 18 16 18 16 21 28 31 36 29 9 26 29 22 28 24 20 16 18 15 14
12 11 8 5 4 3 3 4 4 3 8 9 9 8 6 8 10 14 14 21 21 22 24 26 24 20 22 28 33 30 27 24 19 25 28 15 21 22 19 16 15 14 13
11 10 7 5 4 2 3 5 5 5 7 9 9 10 9 9 13 17 17 18 18 17 18 17 23 22 24 27 30 30 24 25 26 27 19 7 14 12 12 10 15 15 14
12 9 7 6 6 5 6 9 5 5 7 9 8 11 12 11 14 20 18 20 19 16 16 19 20 21 24 27 33 29 27 28 20 17 18 14 17 14 12 10 14 16 15
11 9 8 8 8 7 8 8 5 5 5 6 8 10 12 14 17 21 19 21 18 21 21 22 21 22 28 28 29 26 29 25 21 13 14 16 17 15 8 12 12 15 17
Wind_Direction
214 213 215 215 217 218 218 220 222 223 227 232 236 242 249 251 261 258 259 246 258 243 245 245 234 231 225 222 223 227 228 215 209 210 200 198 193 191 206 198 202 201 202
215 214 213 216 220 220 222 220 222 226 230 235 236 237 241 247 253 253 251 246 245 243 237 239 231 231 228 222 220 218 222 218 212 214 220 210 206 207 216 207 202 194 207
218 214 216 217 222 223 221 220 222 224 235 236 241 238 234 243 251 248 244 251 245 240 240 238 236 233 230 217 211 220 223 225 213 213 209 209 205 208 210 201 201 202 208
216 212 215 219 221 221 219 219 222 229 237 239 245 244 233 244 247 249 244 246 258 241 231 235 235 234 227 214 209 218 219 225 217 210 205 202 200 203 204 202 201 205 207
213 209 214 218 216 216 216 220 221 227 241 243 248 246 240 249 248 247 244 241 241 247 241 223 228 224 228 210 205 208 219 219 217 210 201 202 200 205 205 200 202 197 195
205 204 209 208 202 209 212 216 222 228 234 246 253 247 245 246 247 244 246 241 234 237 229 231 213 221 215 205 204 211 219 219 219 210 207 202 202 199 192 190 187 180 170
198 197 198 194 195 199 205 210 215 220 231 228 248 252 255 249 249 246 238 225 224 226 220 215 216 210 190 200 207 213 220 223 215 208 199 194 194 191 183 176 168 168 156
192 188 188 188 188 190 195 196 203 208 214 215 243 273 267 233 237 236 226 224 215 206 221 213 210 214 187 182 204 215 210 208 198 199 189 179 184 184 178 166 164 168 149
180 179 180 177 179 185 189 191 197 205 214 220 238 237 260 264 180 210 218 220 207 205 207 229 206 202 194 165 189 204 195 197 189 191 183 177 182 181 167 167 169 155 142
171 173 174 175 174 186 181 190 200 214 220 216 221 234 244 283 283 204 190 205 191 189 210 227 210 201 184 179 183 182 197 188 186 184 181 182 181 178 171 170 161 158 160
165 168 170 172 178 183 189 188 194 210 218 234 224 208 221 230 221 240 191 170 169 161 186 222 206 196 193 193 185 191 191 189 182 184 179 178 176 169 170 159 168 164 157
160 167 170 175 176 186 189 196 196 202 217 226 225 215 218 219 215 243 218 182 156 154 166 177 150 187 186 182 181 196 188 183 181 179 184 178 174 166 171 170 166 159 158
163 167 169 170 180 188 190 193 199 206 206 212 217 216 230 220 225 224 217 160 155 161 154 165 150 163 185 187 184 172 180 179 177 180 180 177 164 162 158 161 157 160 160
166 166 167 176 182 184 189 195 195 202 206 213 216 218 229 232 218 214 209 165 153 155 172 143 156 169 178 173 186 177 177 176 177 178 179 163 167 167 160 156 160 162 156
153 164 173 176 179 185 189 187 200 205 208 214 216 219 222 235 214 216 195 188 185 155 155 182 153 165 155 164 185 171 173 177 177 173 171 171 171 162 151 161 163 161 161
154 160 168 175 180 185 185 192 195 203 205 205 205 211 217 215 212 207 193 176 177 161 145 157 135 138 148 160 158 154 168 173 178 173 169 166 161 156 158 161 162 163 162
154 164 173 179 180 181 186 194 201 198 209 203 196 204 228 216 205 195 194 187 177 177 142 116 118 131 122 144 153 159 154 163 172 176 173 159 160 159 158 161 162 160 160
156 160 165 170 176 180 191 200 211 214 213 197 191 199 204 216 206 189 188 194 181 168 162 133 126 116 125 139 144 144 152 160 165 163 158 160 154 159 155 152 151 160 161
150 155 164 171 180 189 196 211 221 221 211 190 184 190 218 229 201 185 178 191 182 156 140 142 122 124 113 130 128 131 140 143 151 163 156 154 160 158 156 153 151 160 164
151 159 166 168 172 186 201 216 211 200 172 169 207 219 217 226 216 186 185 193 165 148 145 138 127 121 118 117 121 114 104 117 120 133 146 150 153 152 145 149 154 167 168
157 160 163 165 167 179 198 221 202 177 174 177 202 213 219 229 223 192 172 161 153 149 145 139 125 130 130 125 122 122 113 113 113 133 138 141 141 144 148 153 165 170 181
160 160 160 159 154 166 189 200 218 186 168 178 194 204 217 224 210 193 192 169 166 160 154 145 142 145 139 127 133 134 131 131 116 141 134 134 153 155 157 159 175 183 187
165 159 151 143 147 156 206 198 189 183 162 178 185 186 194 199 186 184 182 170 166 168 167 163 152 154 148 150 146 144 145 142 133 152 141 129 160 157 168 172 180 189 192
162 156 144 135 141 110 175 165 149 145 156 151 167 172 169 158 175 169 166 156 155 162 162 163 157 157 160 155 153 145 137 127 142 146 145 123 153 158 160 193 197 198 203
158 149 134 137 116 110 134 136 138 136 129 130 151 170 167 159 165 165 163 150 154 149 158 161 156 158 167 154 152 147 138 138 140 157 159 140 170 170 184 192 206 210 213
155 145 131 107 113 126 141 138 126 123 115 115 145 171 172 165 156 159 154 149 139 147 147 143 147 152 156 158 157 157 155 150 144 148 173 170 172 166 186 205 204 216 219